Regional Weather Roundup
Issued by NWS

Home | Current Version | Previous Version | Graphics & Text | Print | Product List | Glossary On
Versions: 1 2 3 4 5 6 7 8 9 10 11 12 13 14 15 16 17 18 19 20 21 22 23 24 25 26 27 28 29 30 31 32 33 34 35 36 37 38 39 40 41 42 43 44 45 46 47 48 49 50
536
ASUS45 KABQ 290510
RWRNM
NEW MEXICO REGIONAL WEATHER ROUNDUP
NATIONAL WEATHER SERVICE ALBUQUERQUE NM
1100 PM MDT THU APR 28 2016

NOTE: "FAIR" MEANS FEW OR NO CLOUDS BELOW 12,000 FEET AGL WITH NO
       SIGNIFICANT WEATHER OR OBSTRUCTIONS TO VISION.

      THIS PRODUCT IS RELEASED AS TWO VERSIONS.  ONE VERSION NEAR
      THE TOP OF THE HOUR CONTAINING PRELIMINARY DATA FROM ALBUQUERQUE
      AND OTHER STATIONS.  A FINAL VERSION WITH ADDITIONAL DATA IS
      ISSUED ABOUT 10 MINUTES AFTER THE HOUR.

NMZ501-503-504-510>518-290600-
NORTHWEST PLATEAU/NORTHCENTRAL MOUNTAINS

CITY           SKY/WX    TMP DP  RH WIND       PRES   REMARKS
FARMINGTON     MOCLDY    48  28  46 W7        29.82R
LOS ALAMOS     MOCLDY    52  10  18 NW3       29.83S
SANTA FE       FAIR      56  35  45 SE23G33   29.78R
TAOS           MOCLDY    46  30  53 E26G40    29.85S
ANGEL FIRE     DRIZZLE   37  34  88 W6        29.97S WCI  33

$$
NMZ402-403-502-505>509-290600-
WESTCENTRAL MOUNTAINS/SOUTHWEST MOUNTAINS

CITY           SKY/WX    TMP DP  RH WIND       PRES   REMARKS
GALLUP         MOCLDY    45  22  40 S13       29.87S
GRANTS         MOCLDY    43  30  61 N16G23    29.92R
SILVER CITY      N/A     54  27  35 NW14      29.85R

$$
NMZ407-409-411-412-290600-
SOUTHERN DESERTS

CITY           SKY/WX    TMP DP  RH WIND       PRES   REMARKS
LORDSBURG      FAIR      55  30  38 W17       29.82R
DEMING         CLOUDY    62  29  28 NW20G28   29.78R
LAS CRUCES     FAIR      66  27  23 SW23G35   29.75S
HOLLOMAN AFB   FAIR      62  20  20 S5        29.71R
ALAMOGORDO     FAIR      61  21  21 S8        29.73R
T OR C         FAIR      63  21  20 W14       29.75R

$$
NMZ519>523-290600-
CENTRAL VALLEYS/CENTRAL HIGHLANDS

CITY           SKY/WX    TMP DP  RH WIND       PRES   REMARKS
ALBUQUERQUE    MOCLDY    62  10  13 NW16      29.76R
DOUBLE EAGLE   FAIR      55  22  28 N15       29.80R
MORIARTY ARPT  FAIR      50   8  18 S6        29.81F
CLINES CORNERS MOCLDY    46  38  73 E21       29.84F
BELEN          FAIR      62  11  13 W12       29.77R
SOCORRO        FAIR      65  13  13 SW10      29.74R

$$
NMZ524>526-539-540-290600-
SOUTHCENTRAL MOUNTAINS

CITY           SKY/WX    TMP DP  RH WIND       PRES   REMARKS
RUIDOSO          N/A     50  18  27 W13       29.85F

$$
NMZ527>531-290600-
NORTHEAST HIGHLANDS/NORTHEAST PLAINS

CITY           SKY/WX    TMP DP  RH WIND       PRES   REMARKS
LAS VEGAS      CLOUDY    45  38  76 NE12      29.92S
RATON          CLOUDY    39  35  86 N12       29.94S WCI  32
CLAYTON        LGT RAIN  40  37  89 NE23G33   29.90S WCI  30

$$
NMZ532>537-290600-
EASTCENTRAL PLAINS

CITY           SKY/WX    TMP DP  RH WIND       PRES   REMARKS
TUCUMCARI      MOCLDY    54  48  80 NE18      29.77R
CANNON AFB     FAIR      58  53  82 E14       29.74F
CLOVIS AIRPORT FAIR      55  48  76 E16       29.76F

$$
NMZ028-029-538-290600-
SOUTHEAST PLAINS

CITY           SKY/WX    TMP DP  RH WIND       PRES   REMARKS
ROSWELL        FAIR      55  19  24 CALM      29.66S
ARTESIA        FAIR      59  16  18 S9        29.70R
CARLSBAD       FAIR      63  33  32 CALM      29.65F
HOBBS          FAIR      68  54  60 SE17G23   29.71F


$$




USA.gov is the U.S. government's official web portal to all federal, state and local government web resources and services.